Probability
0 0 0 0 0 0 0 0 0 0 0 0 0 0 0 0 0 0 0 0 1 2 2 1 0 0 0 0 0 1 2 1 0 0 0 0 0 0 0 0 0 0 0 0
0 0 0 0 0 0 0 0 0 0 0 0 0 0 0 0 0 0 0 0 1 1 1 0 0 0 0 0 0 2 2 1 0 0 0 0 0 0 0 0 0 0 0 0
0 0 0 0 0 0 0 0 0 0 0 0 0 0 0 0 0 0 0 0 0 0 0 0 0 0 0 0 0 1 1 1 0 0 0 0 0 0 0 0 0 0 0 0
0 0 0 0 0 0 0 0 0 0 0 0 0 0 0 0 0 0 0 0 0 0 0 0 0 0 0 0 0 0 0 0 0 0 0 0 0 0 0 0 0 0 0 0
0 0 0 0 0 0 0 0 0 0 0 0 0 0 0 0 0 0 0 0 0 0 0 0 0 0 0 0 0 0 0 0 0 0 0 0 0 0 0 0 0 0 0 0
0 0 0 0 0 0 0 0 0 0 0 0 0 0 0 0 0 0 0 0 0 0 0 0 0 0 0 0 0 0 0 0 0 0 0 0 0 0 0 0 0 0 0 0
0 0 0 0 0 0 0 0 0 0 0 0 0 0 0 0 0 0 0 0 0 0 0 0 0 0 0 0 0 0 0 0 0 0 0 0 0 0 0 0 0 0 0 0
0 0 0 0 0 0 0 0 0 0 0 0 0 0 0 0 0 0 0 0 0 0 0 0 0 0 0 0 0 0 0 0 0 0 0 0 0 0 0 0 0 0 0 0
0 0 0 0 0 0 0 0 0 0 0 0 0 0 0 0 0 0 0 0 0 0 0 0 0 0 0 0 0 0 0 0 0 0 0 0 0 0 0 0 0 0 0 0
0 0 0 0 0 0 0 0 0 0 0 0 0 0 0 0 0 0 0 0 0 0 0 0 0 0 0 0 0 0 0 0 0 0 0 0 0 0 0 0 0 0 0 0
0 0 0 0 0 0 0 0 0 0 0 0 0 0 0 0 0 0 0 0 0 0 0 0 0 0 0 0 0 0 0 0 0 0 0 0 0 0 0 0 0 0 0 0
0 0 0 0 0 0 0 0 0 0 0 0 0 0 0 0 0 0 0 0 0 0 0 0 0 0 0 0 0 0 0 0 0 0 0 0 0 0 0 0 0 0 0 0
0 0 0 0 0 0 0 0 0 0 0 0 0 0 0 0 0 0 0 0 0 0 0 0 0 0 0 0 0 0 0 0 0 0 0 0 0 0 0 0 0 0 0 0
0 0 0 0 0 0 0 0 0 0 0 0 0 0 0 0 0 0 0 0 0 0 0 0 0 0 0 0 0 0 0 0 0 0 0 0 0 0 0 0 0 0 0 0
0 0 0 0 0 0 0 0 0 0 0 0 0 0 0 0 0 0 0 0 0 0 0 0 0 0 0 0 0 0 0 0 0 0 0 0 0 0 0 0 0 0 0 0
0 0 0 0 0 0 0 0 0 0 0 0 0 0 0 0 0 0 0 0 0 0 0 0 0 0 0 0 0 0 0 0 0 0 0 0 0 0 0 0 0 0 0 0
0 0 0 0 0 0 0 0 0 0 0 0 0 0 0 0 0 0 0 0 0 0 0 0 0 0 0 0 0 0 0 0 0 0 0 0 0 0 0 0 0 0 0 0
0 0 0 0 0 0 0 0 0 0 0 0 0 0 0 0 0 0 0 0 0 0 0 0 0 0 0 0 0 0 0 0 0 0 0 0 0 0 0 0 0 0 0 0
0 0 0 0 0 0 0 0 0 0 0 0 0 0 0 0 0 0 0 0 0 0 0 0 0 0 0 0 0 0 0 0 0 0 0 0 0 0 0 0 0 0 0 0
0 0 0 0 0 0 0 0 0 0 0 0 0 0 0 0 0 0 0 0 0 0 0 0 0 0 0 0 0 0 0 0 0 0 0 0 0 0 0 0 0 0 0 0
0 0 0 0 0 0 0 0 0 0 0 0 0 0 0 0 0 0 0 0 0 0 0 0 0 0 0 0 0 0 0 0 0 0 0 0 0 0 0 0 0 0 0 0
0 0 0 0 0 0 0 0 0 0 0 0 0 0 0 0 0 0 0 0 0 0 0 0 0 0 0 0 0 0 0 0 0 0 0 0 0 0 0 0 0 0 0 0
0 0 0 0 0 0 0 0 0 0 0 0 0 0 0 0 0 0 0 0 0 0 0 0 0 0 0 0 0 0 0 0 0 0 0 0 0 0 0 0 0 0 0 0
0 0 0 0 0 0 0 0 0 0 0 0 0 0 0 0 0 0 0 0 0 0 0 0 0 0 0 0 0 0 0 0 0 0 0 0 0 0 0 0 0 0 0 0
0 0 0 0 0 0 0 0 0 0 0 0 0 0 0 0 0 0 0 0 0 0 0 0 0 0 0 0 0 0 0 0 0 0 0 0 0 0 0 0 0 0 0 0
0 0 0 0 0 0 0 0 0 0 0 0 0 0 0 0 0 0 0 0 0 0 0 0 0 0 0 0 0 0 0 0 0 0 0 0 0 0 0 0 0 0 0 0
Wind_Speed
1 2 1 1 2 3 3 1 2 2 1 1 4 7 7 4 4 4 4 3 3 3 2 3 3 3 3 3 3 3 3 2 2 1 1 1 1 1 1 0 1 1 1 1
2 1 2 2 2 2 1 1 2 2 1 2 4 8 7 5 5 4 3 3 2 1 2 2 3 3 3 3 3 3 3 3 2 2 2 1 1 1 1 1 0 1 1 1
2 2 2 1 3 2 1 1 2 3 4 4 4 6 4 3 4 3 3 3 3 3 3 3 3 3 3 3 3 3 3 3 3 2 1 1 0 0 1 1 1 1 1 0
2 2 1 1 2 2 1 3 2 2 3 3 1 4 4 3 3 4 4 3 3 2 2 2 3 3 3 3 3 3 3 3 3 3 3 3 2 2 2 1 1 1 1 0
1 2 2 1 2 2 1 2 2 3 2 3 3 3 6 2 3 4 4 4 3 2 2 2 2 3 2 3 3 3 3 3 3 3 4 3 2 2 1 1 1 1 1 0
2 1 2 2 1 1 1 2 3 2 1 3 3 3 5 2 2 2 2 2 2 2 1 1 1 2 2 2 3 3 3 4 4 4 4 4 4 3 2 2 1 1 0 1
1 2 1 1 0 1 1 1 2 2 1 4 1 2 7 2 1 2 2 2 2 2 1 1 1 1 2 2 3 3 3 3 4 4 4 4 4 3 3 3 2 1 1 1
1 1 2 0 1 1 2 0 1 2 2 3 1 5 6 1 2 2 1 1 1 1 1 1 2 2 2 3 3 3 3 3 3 3 3 3 3 2 2 2 2 2 2 2
1 1 2 1 1 2 1 0 0 0 1 3 5 4 3 1 1 1 2 2 2 2 2 2 2 2 2 2 3 3 4 3 3 4 3 3 3 2 2 2 1 1 1 1
1 1 1 2 1 2 2 1 0 1 1 3 5 4 4 2 2 2 3 3 3 3 2 2 2 2 2 3 3 3 3 4 3 3 3 2 2 2 2 2 2 2 1 1
1 1 1 1 3 3 2 2 2 1 2 2 4 6 1 3 3 3 3 2 2 2 2 2 2 2 2 2 3 3 3 3 3 3 3 3 3 2 2 2 2 2 2 2
1 1 2 2 1 1 2 2 3 3 3 3 3 8 2 0 1 2 2 3 2 2 2 2 2 2 2 3 3 3 4 4 4 3 3 3 3 3 3 3 2 2 2 2
2 2 0 1 1 1 2 3 2 1 0 3 4 9 2 2 2 2 3 3 2 2 2 2 2 2 2 3 3 3 3 4 3 3 3 3 3 3 3 3 2 2 2 2
1 2 5 6 2 2 4 5 5 4 4 5 9 11 8 6 5 5 4 3 2 2 2 2 3 3 3 2 3 3 3 3 3 3 4 4 4 4 3 3 2 2 2 2
1 3 4 5 4 3 5 7 8 10 9 9 9 10 12 8 6 5 4 3 3 3 3 3 4 3 3 3 3 3 3 3 3 3 4 4 3 3 2 2 2 2 2 2
2 2 1 4 3 4 8 10 10 11 10 11 12 15 12 8 5 5 4 4 4 5 4 4 4 4 4 4 4 3 3 3 3 3 4 3 3 3 3 3 2 2 2 2
4 4 2 4 2 3 11 12 13 9 10 9 13 13 6 5 6 6 5 5 6 6 5 5 4 4 4 4 3 3 3 3 3 4 3 3 3 4 3 3 3 3 3 2
5 4 2 2 1 8 10 4 10 11 11 12 11 9 7 6 5 5 4 4 6 5 4 4 4 3 3 3 2 2 2 3 3 4 4 3 3 3 3 3 3 3 3 3
3 5 3 2 4 11 8 4 5 7 9 10 12 11 8 5 5 6 3 3 5 5 4 3 3 3 2 2 2 2 2 2 3 4 4 3 3 3 3 3 4 3 3 3
3 3 4 4 5 9 7 3 3 3 8 7 7 8 6 1 3 6 2 2 3 3 2 2 2 2 2 2 1 1 2 2 3 3 3 3 3 4 4 4 4 3 3 3
5 5 7 8 8 12 5 3 4 5 8 2 5 6 4 5 6 4 2 3 3 2 2 1 1 1 2 2 0 2 2 3 3 2 2 2 3 3 3 3 2 2 2 2
11 9 9 7 8 13 4 7 8 7 1 0 1 2 4 5 5 5 4 4 3 3 2 2 2 2 2 1 1 2 3 3 1 1 2 2 2 2 2 2 2 2 2 2
10 10 8 11 11 4 6 6 3 2 2 2 2 3 3 4 5 5 5 4 3 3 3 2 2 3 2 1 1 3 4 1 1 1 2 2 2 2 2 2 2 2 2 3
4 1 3 6 8 5 4 5 4 3 3 4 3 4 3 4 6 6 5 4 4 3 3 3 2 3 3 2 2 3 2 1 1 2 3 2 2 2 2 2 2 2 3 3
6 5 4 7 8 6 6 6 6 5 4 5 5 4 4 5 6 6 5 5 4 4 3 2 3 4 4 3 2 2 2 1 2 2 2 2 2 2 2 2 2 3 3 3
6 8 9 9 7 6 6 4 3 4 5 6 5 5 4 4 6 6 5 5 4 4 4 3 4 4 4 3 3 2 1 1 2 2 2 2 2 2 2 2 2 4 4 5
Wind_Direction
82 53 30 359 331 310 320 308 303 322 29 301 255 266 272 242 235 239 234 226 224 210 183 152 149 145 152 158 164 176 175 174 162 173 177 194 240 263 279 255 203 227 264 273
115 53 359 349 340 329 340 306 301 307 5 276 279 278 267 243 228 220 225 234 234 204 158 140 136 151 165 172 179 179 180 181 183 198 198 188 194 224 228 277 307 239 225 249
90 44 351 26 29 5 359 313 325 326 317 251 275 287 236 221 212 197 204 219 227 197 187 170 159 165 172 185 186 188 192 194 195 194 179 163 165 249 246 247 261 272 231 237
62 38 355 47 16 335 309 30 352 316 320 297 289 295 264 212 209 204 210 213 218 198 180 178 176 180 186 194 185 193 200 199 196 189 186 189 198 224 232 225 230 267 256 231
71 37 19 37 2 349 28 353 301 278 280 301 258 250 276 211 228 218 204 204 194 173 169 184 185 178 180 180 182 193 201 205 199 195 198 206 214 225 215 195 212 236 256 248
109 83 21 14 11 336 285 272 255 252 283 281 236 221 272 223 214 180 162 160 151 131 122 148 153 139 162 169 174 189 206 214 205 197 198 201 205 207 206 219 221 221 229 278
161 148 119 322 267 185 266 337 356 341 293 255 179 227 252 253 93 117 141 157 145 130 145 179 175 177 203 203 201 199 205 218 212 201 198 199 206 206 210 209 213 212 222 246
189 230 156 172 356 244 244 295 143 261 277 299 257 240 254 160 96 90 101 119 128 174 204 222 216 207 214 211 208 211 216 218 207 199 197 197 202 208 214 215 213 209 217 217
192 190 100 97 334 321 294 173 23 241 318 290 261 252 274 167 189 189 191 202 223 227 223 222 221 214 219 218 215 214 220 216 200 197 195 195 196 202 215 224 219 209 215 212
345 199 145 127 253 263 304 338 136 159 266 282 281 262 246 219 228 220 211 215 231 226 224 222 215 212 220 220 219 214 215 213 206 196 191 191 191 198 214 219 223 223 223 217
318 157 179 176 208 200 182 206 219 217 220 227 279 271 255 175 189 209 230 228 231 233 237 235 234 221 215 218 216 219 218 211 205 199 193 189 194 194 203 216 226 222 222 221
156 148 234 209 138 353 250 222 187 189 241 227 256 269 286 154 167 195 247 256 246 241 245 241 237 229 222 226 225 216 209 207 206 195 190 195 195 192 199 215 226 221 222 224
144 147 128 301 284 267 251 237 229 201 207 224 232 262 268 304 296 268 254 264 264 246 248 260 259 248 241 238 232 217 209 207 199 185 189 199 203 199 203 212 217 221 223 227
129 190 198 215 231 176 218 219 206 190 209 234 233 255 275 284 292 296 293 283 276 262 253 262 265 262 256 246 238 225 218 204 192 189 194 205 208 205 205 204 205 220 227 225
164 219 240 264 278 255 240 228 204 209 218 227 248 253 265 273 278 282 287 287 276 267 260 257 262 266 266 260 248 232 224 203 190 195 202 209 205 198 193 199 206 217 229 237
186 214 263 273 251 257 262 241 222 224 231 244 262 271 267 270 274 277 274 269 270 265 265 261 257 259 262 260 250 235 228 206 186 201 212 202 192 194 195 202 211 214 222 232
174 167 189 260 258 306 265 226 206 217 215 209 233 248 272 281 275 274 273 261 261 265 267 264 258 253 256 257 251 239 228 202 192 205 209 202 199 202 200 201 207 215 223 228
167 166 184 259 13 245 244 180 193 216 234 221 239 259 269 268 282 280 271 264 269 271 267 265 266 269 266 254 248 240 217 205 203 210 209 200 201 209 204 202 211 219 226 231
192 173 184 197 245 270 272 217 186 206 258 227 234 254 266 284 309 286 252 245 255 260 263 267 271 277 279 270 246 218 220 212 214 221 219 209 202 208 206 214 218 219 226 238
215 191 193 200 223 244 254 177 171 158 270 241 212 234 251 246 271 268 279 290 282 292 304 300 301 309 301 297 275 217 234 226 235 236 228 212 206 209 213 220 221 221 227 237
176 194 209 214 232 257 250 159 131 184 248 222 197 218 219 216 235 264 303 314 309 312 315 315 309 297 292 308 288 244 252 251 252 243 230 218 213 219 222 229 227 226 233 241
178 180 199 195 219 249 187 149 190 222 282 169 210 221 233 246 268 288 294 297 307 315 317 309 293 289 301 313 262 258 261 268 270 232 229 233 232 232 224 226 232 228 225 237
204 196 191 197 215 239 171 197 242 348 311 290 277 268 256 266 276 283 287 290 296 302 305 308 291 294 301 299 267 265 278 296 279 246 242 243 244 242 231 223 226 229 226 234
242 258 222 251 259 262 239 257 279 280 278 286 296 296 294 283 289 293 295 296 300 303 302 307 302 291 291 287 273 269 292 275 228 241 249 239 232 243 241 238 231 231 230 234
221 177 216 258 277 293 271 250 257 269 279 287 286 281 276 280 286 288 292 294 294 297 301 300 284 278 283 293 288 291 287 240 245 251 254 250 235 235 242 241 240 242 238 233
193 188 196 232 228 223 256 264 246 249 265 270 276 285 283 268 277 290 293 298 303 303 307 303 293 288 288 290 290 289 270 217 225 247 245 242 242 233 236 250 281 277 266 275